Voltar ao catálogo

DELTA 1 DEB

AtivoSSO
NORAD 21317·DEBRIS·🇺🇸 United States

Lançado Jun 12, 1975 de Vandenberg Space Force Base

Loading…

Próximas Passagens (próximas 24 horas)

TLE

AtualizadoSource: Space-Track

Época: Sep 13, 2026, 18:29 UTC

1 21317U 75052AK  26256.77059631  .00001260  00000-0  21492-2 0  9991
2 21317 100.0971 194.1865 0212220 109.9081 282.4611 13.38563016692316

Acompanhe DELTA 1 DEB em tempo real com AllMySat

Download on the App Store